KDFW

Dallas-Fort Worth International Airport

Airport
ICAO code
KDFW
IATA Code
DFW
Summary
ICAO Region
NAM
ICAO Territory
Location

Dallas, Texas

Serving
Dallas
Elevation
607 ft
Coordinates
32° 53' 55" N , 97° 2' 25" W
KCC
Airport LOS
Parallel Runway Operation
Metar
KDFW 142153Z 17013KT 10SM FEW040 BKN250 27/19 A2988 RMK AO2 SLP109 T02720189

Description

Large International airport serving the cities of Dallas and Fort Worth, Texas, USA.

Airport map

Aerial View

SKYbrary Partners:

Safety knowledge contributed by: